Hourly Data Report for February 17, 2002

SHERBROOKE A
QUEBEC

45°26'00.000" N
71°41'00.000" W
241.40 m
7028124
71610
YSC

Download Data

Hourly Data (February 2002)
Hourly Data Report for February 17, 2002
TIME
LST
Temp Definition
°C
Dew Point Definition
°C
Rel Hum Definition
%
Precip. Amount Definition
mm

Wind Dir Definition
10's deg

Wind Spd Definition
km/h
Visibility Definition
km
Stn Press Definition
kPa
Hmdx Definition


Wind Chill Definition


Weather Definition


00:00 -2.1 -2.9 94     0 12.9 97.67      
01:00 -4.1 -4.8 95     0 8.0 97.64      
02:00 -3.0 -3.3 98   10 6 4.8 97.66   -5  
03:00 -4.3 -4.6 98   6 6 3.2 97.61   -7  
04:00 -4.0 -4.5 96   5 7 6.4 97.62   -7  
05:00 -4.4 -4.9 96   6 4 6.4 97.63   -6  
06:00 -5.2 -5.8 96   7 9 6.4 97.64   -9  
07:00 -4.7 -5.6 93   7 9 8.0 97.71   -9  
08:00 -3.9 -5.1 91   6 11 19.3 97.76   -8 Cloudy
09:00 -3.2 -4.6 90   6 11 19.3 97.77   -7 Mostly Cloudy
10:00 -1.2 -4.0 81   4 7 24.1 97.77   -4 Cloudy
11:00 1.3 -3.6 70   4 11 24.1 97.77     Mostly Cloudy
12:00 2.4 -3.4 65   1 13 24.1 97.78     Cloudy
13:00 2.3 -3.8 64   1 19 24.1 97.77     Mostly Cloudy
14:00 2.3 -4.1 63   3 20 24.1 97.79     Cloudy
15:00 2.4 -4.3 61   1 13 24.1 97.84     Mostly Cloudy
16:00 2.1 -4.8 60   2 17 24.1 97.94     Mostly Cloudy
17:00 1.1 -5.5 61   3 11 24.1 98.10     Mostly Cloudy
18:00 -0.6 -6.6 64   1 13 15.0 98.25   -5  
19:00 -1.3 -8.0 60   36 6 15.0 98.41   -4  
20:00 -2.1 -12.0 47   34 11 15.0 98.51   -6  
21:00 -4.2 -11.8 55   33 13 15.0 98.62   -9  
22:00 -5.4 -12.7 56   32 9 15.0 98.73   -9  
23:00 -6.7 -13.3 59   32 7 15.0 98.84   -10  

Notes on Data Quality.

Legend

  • E = Estimated
  • M = Missing
  • NA = Not Available*
  • [empty] = Indicates an unobserved value
Date modified: